Location: Brompton
(51.4000°N, 0.5333°E)
Time: 18:26:56
(UTC+00:00)

MTI - Pass Details

Date: 11 May 2021
Orbit: 381 x 388 km, 97.5° (Epoch: 15 June)

Event Time Altitude Azimuth Distance (km) Brightness Sun altitude
Rises 23:16:39 0° 18° (NNE) 2,274 8.6 -20.0°
Reaches altitude 10° 23:18:40 10° 25° (NNE) 1,414 7.2 -20.0°
Enters shadow 23:21:02 40° 66° (ENE) 585 4.5 -20.1°
